Regional Weather Roundup
Issued by NWS

Home | Current Version | Previous Version | Graphics & Text | Print | Product List | Glossary Off
Versions: 1 2 3 4 5 6 7 8 9 10 11 12 13 14 15 16 17 18 19 20 21 22 23 24 25 26 27

000
ASUS43 KDMX 200607
RWRIA

WEATHER ROUNDUP FOR IOWA
NATIONAL WEATHER SERVICE DES MOINES IA
100 AM CDT SUN APR 20 2014

NOTE: "FAIR" INDICATES FEW OR NO CLOUDS BELOW 12,000 FEET WITH NO
SIGNIFICANT WEATHER AND/OR OBSTRUCTIONS TO VISIBILITY.

* - THESE STATIONS ARE NOT NWS STATIONS...THUS NOT UNDER NWS
QUALITY CONTROL.  THEY ALSO DO NOT REPORT WEATHER SUCH
AS PRECIPITATION OR FOG.

IAZ001>003-012>014-020>022-031>034-043>046-200700-
   NORTHWEST IOWA

CITY           SKY/WX    TMP DP  RH WIND       PRES   REMARKS
CARROLL *      CLOUDY    64  45  48 S15G21    30.02S
CHEROKEE *     MOCLDY    59  46  63 CALM      30.00R
DENISON *      CLOUDY    66  45  45 S16       30.00R
LE MARS *      MOCLDY    57  48  72 NE8       30.00S
ORANGE CITY *  CLOUDY    61  46  59 NE7       30.00F
SHELDON *      CLOUDY    55  43  62 NE7       30.01S
SIOUX CITY     MOCLDY    59  47  64 W5        29.98S
6HR MIN TEMP:  58; 6HR MAX TEMP:  71;

SPENCER        CLOUDY    58  47  66 N7        30.02S
6HR MIN TEMP:  58; 6HR MAX TEMP:  68;

STORM LAKE *   MOCLDY    63  45  51 S10       30.01S
$$

IAZ055>058-069>071-079>083-090>094-200700-
   SOUTHWEST IOWA

CITY           SKY/WX    TMP DP  RH WIND       PRES   REMARKS
ATLANTIC *     CLOUDY    66  45  45 S15       30.02F
AUDUBON *      PTCLDY    64  41  42 S10       30.04S
CLARINDA *     CLEAR     64  46  52 S8        30.06S
COUNCIL BLFS * PTCLDY    63  46  55 S10       30.00S
CRESTON *      PTCLDY    61  45  55 S12       30.07S
HARLAN  *      CLOUDY    64  45  48 S14       30.05S
LAMONI           N/A     60  44  55 S9        30.08S
6HR MIN TEMP:  60; 6HR MAX TEMP:  73;

RED OAK *      CLOUDY    64  46  52 S12       30.03S
SHENANDOAH *   CLEAR     66  45  45 S16G22    30.03S
$$

IAZ047>049-059>061-072>074-084-200700-
   CENTRAL IOWA

CITY           SKY/WX    TMP DP  RH WIND       PRES   REMARKS
AMES           CLOUDY    62  45  53 SE7       30.06S
6HR MIN TEMP:  61; 6HR MAX TEMP:  72;

ANKENY *       PTCLDY    61  46  59 S8        30.06F
CHARITON *     CLOUDY    57  45  62 S8        30.09S
DES MOINES       N/A     63  44  50 S8        30.07S
6HR MIN TEMP:  63; 6HR MAX TEMP:  74;

GRINNELL*        N/A     59  41  51 S15       30.09S
KNOXVILLE *    CLEAR     59  41  51 S8        30.08S
MARSHALLTOWN   CLOUDY    63  43  48 S12       30.07S
6HR MIN TEMP:  63; 6HR MAX TEMP:  70;

NEWTON *       CLOUDY    61  43  51 S9        30.09S
PELLA *          N/A     59  43  55 SE7       30.10S
PERRY *        CLOUDY    64  43  45 S12       30.04S
$$

IAZ004>006-015-016-023>025-035-036-200700-
   NORTH CENTRAL IOWA

CITY           SKY/WX    TMP DP  RH WIND       PRES   REMARKS
ALGONA *       CLOUDY    64  45  48 S14       30.02R
CLARION *      CLOUDY    63  45  51 S15       30.03S
ESTHERVILLE    CLOUDY    55  48  77 NE5       30.01S
6HR MIN TEMP:  55; 6HR MAX TEMP:  69;

FORT DODGE *   CLOUDY    64  45  48 S20G25    30.03S
MASON CITY     CLOUDY    60  46  59 S9        30.04S
6HR MIN TEMP:  60; 6HR MAX TEMP:  70;

FOREST CITY *  CLOUDY    63  45  51 S12       30.01F
IOWA FALLS *   CLOUDY    63  45  51 S13       30.06S
$$

IAZ007>011-017>019-026>030-037>042-050>054-066-200700-
   NORTHEAST IOWA

CITY           SKY/WX    TMP DP  RH WIND       PRES   REMARKS
CEDAR RAPIDS     N/A     56  38  50 S8        30.11F
6HR MIN TEMP:  56; 6HR MAX TEMP:  70;

CHARLES CITY * CLOUDY    61  45  55 S13       30.06S
CLINTON *        N/A     52  36  54 SE10      30.19F
DECORAH *      CLOUDY    61  41  48 S13G18    30.07S
DUBUQUE        CLOUDY    56  36  47 S15       30.14F
6HR MIN TEMP:  55; 6HR MAX TEMP:  67;

MONTICELLO *   CLOUDY    57  39  51 SE10      30.13S
OELWEIN *      CLOUDY   N/A N/A N/A S12       30.10S
WATERLOO       CLOUDY    63  42  46 S15       30.07F
6HR MIN TEMP:  62; 6HR MAX TEMP:  72;

$$

IAZ064-065-067-068-078-200700-
   EAST CENTRAL IOWA

CITY           SKY/WX    TMP DP  RH WIND       PRES   REMARKS
DAVENPORT        N/A     54  37  52 S9        30.17S
6HR MIN TEMP:  54; 6HR MAX TEMP:  70;

IOWA CITY        N/A     52  40  63 SE5       30.14F
6HR MIN TEMP:  51; 6HR MAX TEMP:  70;

MT. PLEASANT *   N/A     59  39  47 S10       30.14F
MUSCATINE *    CLEAR     54  41  62 CALM      30.15S
QUAD CITIES      N/A     55  37  50 S8        30.16S
6HR MIN TEMP:  54; 6HR MAX TEMP:  70;

$$

IAZ062-063-075>077-085>089-095>099-200700-
   SOUTHEAST IOWA

CITY           SKY/WX    TMP DP  RH WIND       PRES   REMARKS
BURLINGTON       N/A     57  41  55 S8        30.15S
6HR MIN TEMP:  56; 6HR MAX TEMP:  72;

FAIRFIELD *    CLEAR     59  37  44 SE10      30.13S
FORT MADISON * CLEAR     57  43  58 S9        30.16F
KEOKUK *       CLEAR     61  41  48 S6        30.14F
OSKALOOSA *      N/A     53  42  65 S9        30.11F
CENTERVILLE *  CLEAR     55  43  62 SE10      30.12F
OTTUMWA          N/A     59  40  49 S10       30.11F
6HR MIN TEMP:  58; 6HR MAX TEMP:  73;

WASHINGTON *   CLEAR     59  41  51 S12       30.13F
$$

ABBREVIATIONS USED IN REMARKS
   TC - TEMPERATURES IN CELSIUS
  WCI - WIND CHILL INDEX
   HX - HEAT INDEX
  VSB - VISIBILITY
$$




USA.gov is the U.S. government's official web portal to all federal, state and local government web resources and services.